{"data":{"norad_id":61212,"epoch":"2026-05-24T18:19:26.450976Z","epoch_age_seconds":102443,"freshness":"FRESH","line1":"1 61212U 24171N   26144.76350059  .00002878  00000+0  28611-4 0  9995","line2":"2 61212  53.1591 161.4867 0001143  72.6990 287.4153 15.69704717 96342","mean_motion":15.69704717,"eccentricity":0.0001143,"inclination_deg":53.1591,"raan_deg":161.4867,"arg_perigee_deg":72.699,"mean_anomaly_deg":287.4153,"bstar":2.8611e-5,"rev_number":9634,"period_min":91.736998965774,"perigee_km":358.9717288313,"apogee_km":360.51200794061,"semimajor_km":6737.878868386,"source":"CELESTRAK","updated_at":"2026-05-25T13:38:19.361203Z"}}